Location: Brasstown Bald
(34.8693°N, 83.8103°W)
Time: 19:10:07
(UTC-05:00)

Amateur Radio Satellites - All Passes

Search period start: 22 January 2018 18:40
Search period end: 23 January 2018 18:40
Location: Brasstown Bald, 34.8693°N, 83.8103°W

Satellite Date Start Highest point End Downlink Frequencies (MHz)
Time Altitude Azimuth
XW-2D 22 Jan 18:46:21 18:49:13 20° 265° (W) 18:52:04 145.860 - 145.880
KKS-1 22 Jan 18:51:33 18:55:18 27° 290° (WNW) 18:59:02 437.445
HO-68 22 Jan 18:56:10 19:03:19 80° 255° (WSW) 19:10:31 435.675
nSIGHT-1 22 Jan 18:57:42 19:00:12 21° 130° (SE) 19:02:41 .
SEEDS 22 Jan 18:58:36 19:02:47 67° 76° (ENE) 19:06:58 437.485
STARS 22 Jan 19:01:19 19:05:38 55° 286° (WNW) 19:09:57 437.465
XW-2B 22 Jan 19:05:18 19:07:00 13° 267° (W) 19:08:44 145.730 - 145.750
Oscar 11 22 Jan 19:10:57 19:12:59 13° 67° (ENE) 19:15:02 .
CUTE 1.7 + AOD 2 22 Jan 19:15:16 19:19:19 42° 261° (W) 19:23:23 437.475
ISS 22 Jan 19:18:47 19:21:28 24° 130° (SE) 19:24:10 437.550
BEESAT 2 22 Jan 19:26:58 19:30:52 51° 58° (ENE) 19:34:41 435.950
PCSat 22 Jan 19:32:09 19:37:36 83° 245° (WSW) 19:43:00 145.827
CUTE-I 22 Jan 19:36:17 19:38:56 14° 268° (W) 19:41:36 437.470
FO-29 22 Jan 19:42:44 19:46:17 18° 95° (E) 19:49:55 435.910
CUBEBUG 2 22 Jan 19:48:15 19:52:05 30° 264° (W) 19:56:02 437.445
UWE-3 22 Jan 19:48:43 19:53:02 56° 260° (W) 19:57:30 435.000/436.395/437.385
STRAND 1 22 Jan 19:51:13 19:56:18 59° 101° (E) 20:01:22 437.568
XW-2A 22 Jan 19:58:55 20:02:16 58° 259° (W) 20:05:40 145.665 - 145.685
ZACube-1 22 Jan 20:07:41 20:12:06 69° 259° (W) 20:16:37 437.345
AAUSAT CUBESAT 2 22 Jan 20:09:46 20:13:39 40° 262° (W) 20:17:33 437.432
AO-73 22 Jan 20:13:10 20:17:34 68° 258° (WSW) 20:22:06 145.935
AO-85 22 Jan 20:25:23 20:29:58 35° 55° (NE) 20:34:46 145.980
DELFI C3 22 Jan 20:28:39 20:31:00 16° 69° (ENE) 20:33:22 145.870
nSIGHT-1 22 Jan 20:33:29 20:36:14 27° 324° (NW) 20:39:00 .
Max Valier Satellite 22 Jan 20:42:32 20:44:31 14° 69° (ENE) 20:46:31 145.860
Oscar 11 22 Jan 20:44:29 20:48:40 47° 261° (W) 20:52:53 .
HO-68 22 Jan 20:51:02 20:51:55 10° 270° (W) 20:52:47 435.675
ISS 22 Jan 20:55:03 20:57:52 26° 325° (NW) 21:00:41 437.550
EO-88 22 Jan 20:56:36 20:58:20 13° 69° (ENE) 21:00:03 145.990 - 145.960
UNISAT 6 22 Jan 21:02:09 21:03:11 11° 91° (E) 21:04:12 437.425
BEESAT 2 22 Jan 21:07:34 21:08:03 10° 253° (WSW) 21:08:31 435.950
FO-29 22 Jan 21:26:43 21:31:33 41° 288° (WNW) 21:36:32 435.910
STRAND 1 22 Jan 21:32:09 21:34:56 15° 296° (WNW) 21:37:41 437.568
DELFI C3 22 Jan 22:01:59 22:05:27 30° 263° (W) 22:08:55 145.870
AO-85 22 Jan 22:05:59 22:10:18 28° 249° (WSW) 22:14:46 145.980
LO-87 22 Jan 22:09:30 22:10:48 12° 68° (ENE) 22:12:08 145.935 - 145.965
PRISM 22 Jan 22:11:05 22:11:41 10° 93° (E) 22:12:17 437.425
Max Valier Satellite 22 Jan 22:14:41 22:18:01 30° 263° (W) 22:21:22 145.860
TIGRISAT 22 Jan 22:19:36 22:24:20 79° 103° (ESE) 22:28:59 435.000
EO-88 22 Jan 22:28:20 22:31:37 31° 262° (W) 22:34:55 145.990 - 145.960
UNISAT 6 22 Jan 22:35:34 22:40:13 62° 284° (WNW) 22:44:49 437.425
YUBILEINY 22 Jan 23:03:31 23:12:11 64° 92° (E) 23:20:49 435.215
AIST 2D 22 Jan 23:12:31 23:15:28 26° 97° (E) 23:18:24 435.315
ESTCUBE 1 22 Jan 23:17:33 23:22:05 78° 76° (ENE) 23:26:36 437.505/2401.250
O/OREOS (USA 219) 22 Jan 23:23:50 23:26:50 18° 100° (E) 23:29:51 437.305
EO-79 22 Jan 23:33:27 23:35:43 14° 93° (E) 23:37:58 145.935-145.965
LO-87 22 Jan 23:40:36 23:43:50 33° 262° (W) 23:47:05 145.935 - 145.965
PRISM 22 Jan 23:43:13 23:47:09 48° 286° (WNW) 23:51:05 437.425
NO-84 22 Jan 23:47:44 23:50:15 27° 43° (NE) 23:52:51 435.350 FM
POLYITAN 1 23 Jan 00:07:36 00:11:35 36° 98° (E) 00:15:30 437.675
NANOSAT C BR1 23 Jan 00:20:57 00:25:04 46° 99° (E) 00:29:09 145.865
SPROUT 23 Jan 00:23:29 00:27:43 85° 255° (WSW) 00:32:00 437.525
QB50P2 23 Jan 00:37:16 00:41:34 83° 284° (WNW) 00:45:50 145.880/145.840
VELOX 1 23 Jan 00:43:40 00:48:04 86° 74° (ENE) 00:52:28 145.980
AIST 2D 23 Jan 00:46:37 00:48:20 13° 291° (WNW) 00:50:03 435.315
DX 1 23 Jan 00:54:11 00:57:14 19° 68° (ENE) 01:00:18 434.975-435.025
O/OREOS (USA 219) 23 Jan 01:01:49 01:05:56 34° 295° (WNW) 01:10:03 437.305
YUBILEINY 23 Jan 01:02:43 01:09:31 24° 289° (WNW) 01:16:21 435.215
DUCHIFAT 1 23 Jan 01:03:16 01:07:28 61° 285° (WNW) 01:11:39 145.980
EO-79 23 Jan 01:07:35 01:11:35 39° 287° (WNW) 01:15:34 145.935-145.965
NO-84 23 Jan 01:25:31 01:27:12 14° 235° (SW) 01:28:58 435.350 FM
Oscar 19 23 Jan 01:32:57 01:37:36 33° 98° (E) 01:42:11 437.125/150
Gurwin Techsat 1B 23 Jan 01:37:07 01:41:35 27° 96° (E) 01:46:03 435.225
POLYITAN 1 23 Jan 01:44:21 01:47:00 16° 292° (WNW) 01:49:38 437.675
ISS 23 Jan 01:50:12 01:51:14 11° 25° (NNE) 01:52:16 437.550
50 SAT 23 Jan 01:53:47 01:56:50 82° 256° (WSW) 01:59:55 437.505
AO-91 23 Jan 01:53:53 01:58:34 71° 101° (ESE) 02:03:41 145.960
BUGSAT 1 23 Jan 01:55:33 01:59:48 73° 284° (WNW) 02:04:01 437.445
NANOSAT C BR1 23 Jan 01:58:23 02:00:18 13° 294° (WNW) 02:02:14 145.865
FALCONSAT 3 23 Jan 01:59:38 02:01:49 15° 150° (SSE) 02:04:00 435.103
UKube-1 23 Jan 02:11:53 02:16:11 88° 265° (W) 02:20:29 .
DX 1 23 Jan 02:29:20 02:33:10 31° 262° (W) 02:37:00 434.975-435.025
ITUPSAT 1 23 Jan 02:48:53 02:53:09 34° 70° (ENE) 02:57:27 437.325
MOZHAYETS 4 23 Jan 02:57:09 03:01:45 77° 76° (ENE) 03:06:24
nSIGHT-1 23 Jan 03:02:07 03:05:17 66° 42° (NE) 03:08:26 .
CUBESAT XI-V 23 Jan 03:07:34 03:11:12 23° 69° (ENE) 03:14:50 437.345
Oscar 19 23 Jan 03:12:34 03:16:42 25° 292° (WNW) 03:20:49 437.125/150
Gurwin Techsat 1B 23 Jan 03:16:49 03:21:28 31° 291° (WNW) 03:26:05 435.225
AO-7 23 Jan 03:19:13 03:26:46 36° 99° (E) 03:34:13 .
ISS 23 Jan 03:24:55 03:28:11 76° 42° (NE) 03:31:27 437.550
BEESAT 23 Jan 03:26:21 03:31:06 89° 82° (E) 03:35:54 436.000
AO-91 23 Jan 03:33:05 03:34:32 11° 293° (WNW) 03:36:01 145.960
FALCONSAT 3 23 Jan 03:36:52 03:40:28 54° 163° (SSE) 03:44:04 435.103
SO-50 23 Jan 03:53:39 03:55:49 13° 108° (ESE) 03:58:00 436.795
KKS-1 23 Jan 04:11:08 04:13:34 15° 66° (ENE) 04:16:00 437.445
ITAMSAT 1 23 Jan 04:22:58 04:28:11 73° 103° (ESE) 04:33:23 435.822/435.867
ITUPSAT 1 23 Jan 04:27:25 04:30:58 21° 265° (W) 04:34:34 437.325
CUBESAT XI-V 23 Jan 04:44:15 04:48:21 30° 263° (W) 04:52:29 437.345
DOVE 4 23 Jan 05:05:33 05:09:56 54° 100° (E) 05:14:34 437.250
AO-7 23 Jan 05:11:43 05:19:30 45° 295° (WNW) 05:27:16 .
M-CUBED/EXP-1 PRIME 23 Jan 05:15:02 05:18:01 32° 103° (ESE) 05:20:58 437.505
FALCONSAT 3 23 Jan 05:15:49 05:19:30 81° 359° (N) 05:23:11 435.103
SO-50 23 Jan 05:31:28 05:35:46 49° 303° (WNW) 05:40:10 436.795
XW-2C 23 Jan 05:37:02 05:38:24 12° 93° (E) 05:39:46 145.795 - 145.815
LilacSat-2 23 Jan 05:37:34 05:39:27 13° 93° (E) 05:41:19 437.200
KKS-1 23 Jan 05:45:31 05:49:42 43° 261° (W) 05:53:56 437.445
STARS 23 Jan 05:54:01 05:58:22 84° 76° (ENE) 06:02:44 437.465
KAITUO 1B 23 Jan 06:03:39 06:06:12 18° 95° (E) 06:08:44 145.475/437.950
ITAMSAT 1 23 Jan 06:04:58 06:06:58 12° 298° (WNW) 06:08:58 435.822/435.867
XW-2F 23 Jan 06:09:12 06:12:29 29° 97° (E) 06:15:43 145.980 - 146.000
NUDT-PHONESAT 23 Jan 06:09:48 06:12:32 20° 95° (E) 06:15:15 437.300
CUTE-I 23 Jan 06:14:04 06:18:45 31° 97° (E) 06:23:26 437.470
XW-2D 23 Jan 06:20:50 06:24:28 49° 99° (E) 06:28:05 145.860 - 145.880
HO-68 23 Jan 06:28:37 06:34:09 24° 95° (E) 06:39:40 435.675
RS-15 23 Jan 06:34:34 06:44:21 29° 103° (ESE) 06:54:04 29.354- 29.394
XW-2B 23 Jan 06:38:27 06:42:13 84° 102° (ESE) 06:45:56 145.730 - 145.750
DOVE 4 23 Jan 06:45:20 06:47:12 12° 293° (WNW) 06:49:07 437.250
SEEDS 23 Jan 06:47:08 06:49:16 14° 93° (E) 06:51:24 437.485
FALCONSAT 3 23 Jan 06:54:56 06:58:36 74° 193° (SSW) 07:02:15 435.103
CUTE 1.7 + AOD 2 23 Jan 07:03:12 07:07:09 39° 98° (E) 07:11:04 437.475
STRAND 1 23 Jan 07:03:40 07:08:39 59° 74° (ENE) 07:13:39 437.568
XW-2C 23 Jan 07:09:15 07:12:40 34° 286° (WNW) 07:16:04 145.795 - 145.815
LilacSat-2 23 Jan 07:10:25 07:13:46 31° 287° (WNW) 07:17:05 437.200
FO-29 23 Jan 07:33:53 07:40:33 54° 73° (ENE) 07:46:28 435.910
KAITUO 1B 23 Jan 07:37:11 07:40:04 22° 289° (WNW) 07:42:57 145.475/437.950
CUBEBUG 2 23 Jan 07:41:21 07:46:08 73° 102° (ESE) 07:50:48 437.445
UWE-3 23 Jan 07:41:35 07:45:55 38° 98° (E) 07:50:10 435.000/436.395/437.385
NUDT-PHONESAT 23 Jan 07:43:32 07:46:13 20° 289° (WNW) 07:48:54 437.300
XW-2F 23 Jan 07:44:13 07:46:16 14° 291° (WNW) 07:48:20 145.980 - 146.000
CUTE-I 23 Jan 07:54:11 07:58:38 28° 292° (WNW) 08:03:07 437.470
AAUSAT CUBESAT 2 23 Jan 07:54:46 07:58:34 36° 98° (E) 08:02:21 437.432
ZACube-1 23 Jan 07:59:38 08:03:37 30° 96° (E) 08:07:30 437.345
AO-73 23 Jan 08:04:47 08:08:43 29° 96° (E) 08:12:34 145.935
HO-68 23 Jan 08:15:12 08:22:08 56° 290° (WNW) 08:29:04 435.675
BEESAT 3 23 Jan 08:20:51 08:23:46 20° 110° (ESE) 08:26:41 437.485
SEEDS 23 Jan 08:21:13 08:25:03 37° 287° (WNW) 08:28:53 437.485
PCSat 23 Jan 08:28:43 08:32:36 20° 105° (ESE) 08:36:29 145.827
FALCONSAT 3 23 Jan 08:34:24 08:37:23 23° 207° (SSW) 08:40:21 435.103
Oscar 11 23 Jan 08:34:54 08:38:56 38° 98° (E) 08:42:57 .
CUTE 1.7 + AOD 2 23 Jan 08:40:21 08:42:36 14° 292° (WNW) 08:44:50 437.475
RS-15 23 Jan 08:43:27 08:55:45 73° 301° (WNW) 09:07:59 29.354- 29.394
STRAND 1 23 Jan 08:45:50 08:48:09 13° 268° (W) 08:50:28 437.568
XW-2A 23 Jan 08:56:07 08:59:09 32° 286° (WNW) 09:02:09 145.665 - 145.685
TIGRISAT 23 Jan 09:14:41 09:18:52 43° 73° (ENE) 09:23:10 435.000
BEESAT 2 23 Jan 09:15:17 09:18:13 20° 110° (ESE) 09:21:10 435.950
YUBILEINY 23 Jan 09:18:52 09:25:49 26° 71° (ENE) 09:32:43 435.215
UWE-3 23 Jan 09:18:53 09:22:00 18° 292° (WNW) 09:25:05 435.000/436.395/437.385
FO-29 23 Jan 09:20:42 09:25:41 21° 264° (W) 09:30:19 435.910
CUBEBUG 2 23 Jan 09:21:18 09:22:02 10° 296° (WNW) 09:22:46 437.445
UNISAT 6 23 Jan 09:30:29 09:34:52 75° 77° (ENE) 09:39:25 437.425
AAUSAT CUBESAT 2 23 Jan 09:31:23 09:33:40 15° 292° (WNW) 09:35:57 437.432
JUGNU 23 Jan 09:32:29 09:35:38 15° 171° (S) 09:38:47 437.505
O/OREOS (USA 219) 23 Jan 09:36:14 09:39:36 20° 62° (ENE) 09:42:57 437.305
ZACube-1 23 Jan 09:36:15 09:39:39 21° 291° (WNW) 09:43:00 437.345
AO-73 23 Jan 09:41:20 09:44:43 21° 291° (WNW) 09:48:03 145.935
DELFI C3 23 Jan 09:41:21 09:45:01 37° 98° (E) 09:48:41 145.870
Max Valier Satellite 23 Jan 09:47:31 09:50:41 27° 97° (E) 09:53:50 145.860
BEESAT 3 23 Jan 09:57:37 10:01:05 28° 305° (NW) 10:04:33 437.485
EO-88 23 Jan 09:59:55 10:02:55 24° 97° (E) 10:05:53 145.990 - 145.960
PCSat 23 Jan 10:10:26 10:15:36 45° 301° (WNW) 10:20:48 145.827
Oscar 11 23 Jan 10:12:11 10:14:42 15° 293° (WNW) 10:17:12 .
PRISM 23 Jan 10:28:28 10:32:30 70° 77° (ENE) 10:36:32 437.425
AO-85 23 Jan 10:38:12 10:40:51 18° 109° (ESE) 10:43:36 145.980
BEESAT 2 23 Jan 10:52:13 10:55:42 29° 305° (NW) 10:59:15 435.950
TIGRISAT 23 Jan 10:53:25 10:55:45 14° 268° (W) 10:58:06 435.000
POLYITAN 1 23 Jan 10:57:28 11:00:23 18° 68° (ENE) 11:03:18 437.675
RS-15 23 Jan 11:01:40 11:10:46 23° 327° (NNW) 11:19:47 29.354- 29.394
NANOSAT C BR1 23 Jan 11:10:03 11:13:17 22° 70° (ENE) 11:16:34 145.865
LO-87 23 Jan 11:10:32 11:13:23 21° 96° (E) 11:16:12 145.935 - 145.965
ESTCUBE 1 23 Jan 11:14:06 11:17:27 21° 95° (E) 11:20:47 437.505/2401.250
YUBILEINY 23 Jan 11:14:34 11:23:04 59° 269° (W) 11:31:30 435.215
O/OREOS (USA 219) 23 Jan 11:15:04 11:19:00 31° 257° (WSW) 11:22:56 437.305
AIST 2D 23 Jan 11:15:17 11:18:46 65° 259° (W) 11:22:15 435.315
DELFI C3 23 Jan 11:17:34 11:19:22 13° 292° (WNW) 11:21:11 145.870
JUGNU 23 Jan 11:20:04 11:23:54 18° 181° (S) 11:27:44 437.505
Max Valier Satellite 23 Jan 11:22:04 11:24:13 15° 291° (WNW) 11:26:22 145.860
QB50P2 23 Jan 11:26:08 11:30:09 45° 74° (ENE) 11:34:14 145.880/145.840
EO-88 23 Jan 11:34:01 11:36:18 16° 290° (WNW) 11:38:35 145.990 - 145.960
SRMSAT 23 Jan 11:47:10 11:49:22 12° 166° (SSE) 11:51:33 437.500
DUCHIFAT 1 23 Jan 11:51:05 11:55:12 59° 75° (ENE) 11:59:21 145.980
EO-79 23 Jan 11:55:48 12:00:00 87° 252° (WSW) 12:04:17 145.935-145.965
SPROUT 23 Jan 12:12:59 12:16:12 20° 95° (E) 12:19:25 437.525
AO-85 23 Jan 12:17:26 12:20:56 30° 306° (NW) 12:24:39 145.980
POLYITAN 1 23 Jan 12:32:07 12:35:53 31° 263° (W) 12:39:41 437.675
VELOX 1 23 Jan 12:37:36 12:40:53 20° 95° (E) 12:44:10 145.980
BUGSAT 1 23 Jan 12:41:33 12:45:26 46° 74° (ENE) 12:49:24 437.445
LO-87 23 Jan 12:44:03 12:46:35 18° 290° (WNW) 12:49:07 145.935 - 145.965
NANOSAT C BR1 23 Jan 12:45:21 12:48:49 25° 264° (W) 12:52:19 145.865
Oscar 19 23 Jan 12:46:24 12:51:05 35° 70° (ENE) 12:55:47 437.125/150
AO-91 23 Jan 12:49:18 12:52:13 27° 72° (ENE) 12:55:13 145.960
ESTCUBE 1 23 Jan 12:50:20 12:54:13 30° 289° (WNW) 12:58:05 437.505/2401.250
Gurwin Techsat 1B 23 Jan 12:54:53 12:59:32 32° 69° (ENE) 13:04:13 435.225
QB50P2 23 Jan 13:04:27 13:06:08 12° 268° (W) 13:07:49 145.880/145.840
JUGNU 23 Jan 13:09:15 13:12:10 14° 191° (S) 13:15:06 437.505
RS-15 23 Jan 13:25:17 13:30:07 13° 4° (N) 13:34:53 29.354- 29.394
SRMSAT 23 Jan 13:33:53 13:37:47 18° 176° (S) 13:41:41 437.500
SPROUT 23 Jan 13:48:22 13:52:01 28° 289° (WNW) 13:55:39 437.525
UKube-1 23 Jan 14:02:54 14:06:00 19° 95° (E) 14:09:05 .
SO-50 23 Jan 14:05:23 14:10:02 55° 58° (ENE) 14:14:44 436.795
VELOX 1 23 Jan 14:13:29 14:17:17 29° 289° (WNW) 14:21:04 145.980
AO-7 23 Jan 14:14:35 14:22:04 38° 63° (ENE) 14:29:34 .
BUGSAT 1 23 Jan 14:19:54 14:21:00 11° 268° (W) 14:22:07 437.445
DX 1 23 Jan 14:20:01 14:24:17 54° 101° (E) 14:28:32 434.975-435.025
Oscar 19 23 Jan 14:26:19 14:30:24 23° 265° (W) 14:34:31 437.125/150
AO-91 23 Jan 14:28:00 14:28:50 11° 267° (W) 14:29:39 145.960
Gurwin Techsat 1B 23 Jan 14:35:00 14:39:25 27° 264° (W) 14:43:51 435.225
50 SAT 23 Jan 14:42:33 14:45:38 65° 283° (WNW) 14:48:42 437.505
ITUPSAT 1 23 Jan 14:55:06 14:56:17 11° 92° (E) 14:57:28 437.325
MOZHAYETS 4 23 Jan 14:56:09 14:59:47 23° 95° (E) 15:03:24
NO-84 23 Jan 15:00:25 15:02:11 14° 125° (SE) 15:03:55 435.350 FM
SRMSAT 23 Jan 15:22:30 15:26:14 17° 186° (S) 15:30:00 437.500
BEESAT 23 Jan 15:30:08 15:34:17 29° 97° (E) 15:38:25 436.000
ITAMSAT 1 23 Jan 15:37:31 15:42:40 80° 75° (ENE) 15:47:51 435.822/435.867
UKube-1 23 Jan 15:38:14 15:42:00 30° 289° (WNW) 15:45:45 .
RS-15 23 Jan 15:38:53 15:48:38 29° 39° (NE) 15:57:56 29.354- 29.394
SO-50 23 Jan 15:47:36 15:50:02 14° 252° (WSW) 15:52:26 436.795
M-CUBED/EXP-1 PRIME 23 Jan 15:56:42 16:00:27 30° 68° (ENE) 16:04:00 437.505
DX 1 23 Jan 15:58:29 15:59:57 12° 295° (WNW) 16:01:24 434.975-435.025
AO-7 23 Jan 16:06:49 16:14:36 44° 259° (W) 16:22:30 .
DOVE 4 23 Jan 16:08:15 16:12:06 34° 73° (ENE) 16:15:52 437.250
ITUPSAT 1 23 Jan 16:29:41 16:34:27 64° 286° (WNW) 16:39:12 437.325
MOZHAYETS 4 23 Jan 16:32:55 16:36:53 29° 289° (WNW) 16:40:48
NO-84 23 Jan 16:36:10 16:39:09 34° 316° (NW) 16:41:57 435.350 FM
CUBESAT XI-V 23 Jan 16:43:18 16:47:55 85° 102° (ESE) 16:52:30 437.345
HO-68 23 Jan 16:56:58 16:59:51 13° 56° (NE) 17:02:44 435.675
XW-2D 23 Jan 16:59:41 17:01:57 15° 69° (ENE) 17:04:13 145.860 - 145.880
BEESAT 23 Jan 17:08:01 17:11:53 25° 291° (WNW) 17:15:44 436.000
SRMSAT 23 Jan 17:13:53 17:14:39 10° 196° (SSW) 17:15:25 437.500
XW-2B 23 Jan 17:16:30 17:19:35 23° 72° (ENE) 17:22:40 145.730 - 145.750
M-CUBED/EXP-1 PRIME 23 Jan 17:31:34 17:34:45 20° 259° (WSW) 17:37:48 437.505
CUTE-I 23 Jan 17:32:32 17:37:22 37° 70° (ENE) 17:42:13 437.470
KKS-1 23 Jan 17:39:23 17:43:39 43° 100° (E) 17:47:53 437.445
XW-2C 23 Jan 17:46:14 17:50:01 61° 76° (ENE) 17:53:48 145.795 - 145.815
DOVE 4 23 Jan 17:47:20 17:49:52 15° 266° (W) 17:52:21 437.250
STARS 23 Jan 17:47:22 17:50:33 19° 95° (E) 17:53:44 437.465
LilacSat-2 23 Jan 17:47:56 17:51:47 72° 76° (ENE) 17:55:37 437.200
RS-15 23 Jan 17:50:54 18:02:32 84° 244° (WSW) 18:13:33 29.354- 29.394
CUTE 1.7 + AOD 2 23 Jan 17:53:06 17:56:06 19° 69° (ENE) 17:59:07 437.475
KAITUO 1B 23 Jan 18:12:20 18:16:05 87° 259° (W) 18:19:51 145.475/437.950
BEESAT 3 23 Jan 18:16:31 18:20:20 52° 59° (ENE) 18:24:05 437.485
NUDT-PHONESAT 23 Jan 18:17:34 18:21:17 79° 258° (WSW) 18:25:02 437.300
XW-2F 23 Jan 18:19:38 18:23:18 49° 260° (W) 18:27:01 145.980 - 146.000
ISS 23 Jan 18:28:11 18:29:23 12° 127° (SE) 18:30:35 437.550
XW-2D 23 Jan 18:32:28 18:35:50 29° 263° (W) 18:39:12 145.860 - 145.880
